Location: Buch
(49.7331°N, 12.1098°E)
Time: 01:06:49
(UTC+00:00)

Cosmos 1933 Rocket - Pass Details

Date: 12 May 2021
Orbit: 606 x 630 km, 82.5° (Epoch: 18 June)

Event Time Altitude Azimuth Distance (km) Brightness Sun altitude
Rises 19:38:28 0° 356° (N) 2,880 7.7 -7.7°
Reaches altitude 10° 19:40:51 10° 5° (N) 1,970 6.7 -8.0°
Maximum altitude 19:44:52 35° 72° (ENE) 984 4.4 -8.5°
Enters shadow 19:48:33 12° 138° (SE) 1,848 5.3 -8.9°
